Location: Brachbach
(49.1847°N, 9.7240°E)
Time: 02:19:21
(UTC+00:00)

Resurs 1-4 Rocket - Pass Details

Date: 23 May 2024
Orbit: 798 x 813 km, 98.7° (Epoch: 19 June)

Event Time Altitude Azimuth Distance (km) Brightness Sun altitude
Rises 02:05:04 0° 10° (N) 3,319 6.5 -10.9°
Reaches altitude 10° 02:07:28 10° 5° (N) 2,384 5.5 -10.6°
Maximum altitude 02:12:31 49° 293° (WNW) 1,029 2.5 -10.1°
Enters shadow 02:17:06 12° 221° (SW) 2,210 3.7 -9.6°
